Location: Bucquoy
(50.1391°N, 2.7097°E)
Time: 09:09:44
(UTC+00:00)

Spot 1 - Pass Details

Date: 06 May 2021
Orbit: 576 x 776 km, 98.7° (Epoch: 21 June)

Event Time Altitude Azimuth Distance (km) Brightness Sun altitude
Exits shadow 02:30:00 - 168° (SSE) 2,243 6.6 -14.1°
Reaches altitude 10° 02:30:28 10° 168° (SSE) 2,054 6.4 -14.1°
Maximum altitude 02:34:57 79° 254° (WSW) 699 4.2 -13.6°
Drops below altitude 10° 02:39:47 10° 343° (NNW) 2,199 7.3 -13.1°
Sets 02:42:08 0° 345° (NNW) 3,154 8.1 -12.8°
